Location: Newark
(15.4608°S, 41.1635°W)
Time: 23:45:29
(UTC+00:00)

Vanguard 2 - All Passes

Search period start: 30 July 2021 00:00
Search period end: 09 August 2021 00:00
Orbit: 552 x 2937 km, 32.9° (Epoch: 30 July)

Date Brightness Start Highest point End Pass type
(mag) Time Alt. Az. Time Alt. Az. Time Alt. Az.
30 Jul - 01:11:31 10° SW 01:21:54 58° SSE 01:28:02 10° ENE visible
30 Jul - 03:24:28 10° W 03:30:32 30° NW 03:34:45 10° NNE night (unlit)
30 Jul - 14:22:49 10° NNW 14:33:52 29° NE 14:47:42 10° E daylight
30 Jul - 16:29:57 10° NW 16:45:39 76° NE 17:03:29 10° ESE daylight
30 Jul - 18:42:07 10° W 18:59:33 59° SSW 19:15:08 10° SE daylight
30 Jul - 20:58:55 10° WSW 21:14:30 38° S 21:25:55 10° SE visible
30 Jul - 23:15:50 10° SW 23:28:35 39° S 23:36:42 10° ESE visible
31 Jul - 01:29:31 10° WSW 01:39:54 81° SSE 01:45:55 10° ENE visible
31 Jul - 03:43:41 10° W 03:47:51 17° NW 03:51:09 10° N night (unlit)
31 Jul - 14:39:23 10° NNW 14:51:31 40° NE 15:07:10 10° ESE daylight
31 Jul - 16:47:42 10° WNW 17:03:39 89° SSW 17:21:35 10° ESE daylight
31 Jul - 19:00:55 10° W 19:18:04 51° SSW 19:33:07 10° SE daylight
31 Jul - 21:18:05 10° WSW 21:33:19 37° S 21:44:16 10° ESE visible
31 Jul - 23:34:07 10° SW 23:47:06 46° SSE 23:55:03 10° E visible
01 Aug - 01:47:39 10° WSW 01:57:40 72° NW 02:03:32 10° NE visible
01 Aug - 12:53:40 10° NNE 12:58:42 13° NE 13:04:29 10° ENE daylight
01 Aug - 14:56:19 10° NNW 15:09:08 52° NE 15:26:03 10° ESE daylight
01 Aug - 17:05:42 10° WNW 17:21:48 76° SSW 17:39:36 10° ESE daylight
01 Aug - 19:19:55 10° W 19:36:46 46° SSW 19:51:15 10° SE daylight
01 Aug - 21:37:03 10° WSW 21:52:09 38° S 22:02:45 10° ESE visible
01 Aug - 23:52:17 10° SW 00:05:27 56° SSE 00:13:16 10° E visible
02 Aug - 02:06:00 10° WSW 02:15:12 47° NW 02:20:50 10° NNE visible
02 Aug - 13:08:23 10° N 13:16:20 21° NE 13:26:29 10° E daylight
02 Aug - 15:13:34 10° NW 15:26:49 66° NE 15:44:34 10° ESE daylight
02 Aug - 17:23:58 10° WNW 17:40:08 65° SSW 17:57:36 10° SE daylight
02 Aug - 19:39:01 10° WSW 19:55:36 42° S 20:09:30 10° ESE daylight
02 Aug - 21:55:46 10° WSW 22:10:56 41° S 22:21:15 10° ESE visible
03 Aug - 00:10:23 10° WSW 00:23:37 72° SSE 00:31:16 10° ENE visible
03 Aug - 02:24:44 10° WSW 02:32:34 30° NW 02:37:46 10° NNE night (unlit)
03 Aug - 13:24:25 10° N 13:33:49 30° NE 13:46:41 10° E daylight
03 Aug - 15:31:05 10° NW 15:44:40 81° NE 16:02:52 10° ESE daylight
03 Aug - 17:42:30 10° W 17:58:39 56° SSW 18:15:39 10° SE daylight
03 Aug - 19:58:06 10° WSW 20:14:32 41° S 20:27:55 10° ESE daylight
03 Aug - 22:14:15 10° SW 22:29:38 46° SSE 22:39:43 10° E visible
04 Aug - 00:28:31 10° WSW 00:41:35 88° NNW 00:49:03 10° ENE visible
04 Aug - 02:44:09 10° W 02:49:50 19° NW 02:54:05 10° N night (unlit)
04 Aug - 13:41:03 10° NNW 13:51:16 41° NE 14:06:02 10° ESE daylight
04 Aug - 15:48:51 10° WNW 16:02:41 84° SSW 16:20:59 10° ESE daylight
04 Aug - 18:01:14 10° W 18:17:20 50° SSW 18:33:49 10° SE daylight
04 Aug - 20:17:05 10° WSW 20:33:29 41° S 20:46:28 10° ESE daylight
04 Aug - 22:32:33 10° SW 22:48:10 55° SSE 22:58:04 10° E visible
05 Aug - 00:46:47 10° WSW 00:59:17 65° NW 01:06:34 10° NE visible
05 Aug - 03:05:59 10° WNW 03:07:07 10° NW 03:08:10 10° NW night (unlit)
05 Aug - 11:56:07 10° NNE 11:59:32 12° NE 12:03:23 10° ENE daylight
05 Aug - 13:58:03 10° NW 14:08:47 54° NE 14:24:52 10° ESE daylight
05 Aug - 16:06:54 10° WNW 16:20:54 71° SSW 16:39:05 10° SE daylight
05 Aug - 18:20:06 10° W 18:36:11 45° S 18:52:08 10° ESE daylight
05 Aug - 20:35:52 10° WSW 20:52:26 43° S 21:05:06 10° ESE visible
05 Aug - 22:50:43 10° SW 23:06:31 66° SSE 23:16:13 10° ENE visible
06 Aug - 01:05:18 10° WSW 01:16:48 46° NW 01:23:47 10° NNE visible
06 Aug - 12:10:33 10° N 12:16:58 20° NE 12:25:27 10° E daylight
06 Aug - 14:15:21 10° NW 14:26:26 70° NE 14:43:21 10° ESE daylight
06 Aug - 16:25:10 10° W 16:39:19 60° SSW 16:57:11 10° SE daylight
06 Aug - 18:39:03 10° WSW 18:55:09 43° S 19:10:37 10° ESE daylight
06 Aug - 20:54:27 10° WSW 21:11:16 47° SSE 21:23:42 10° E visible
06 Aug - 23:08:52 10° WSW 23:24:39 82° SSE 23:34:10 10° ENE visible
07 Aug - 01:24:12 10° WSW 01:34:08 31° NW 01:40:39 10° NNE visible
07 Aug - 12:26:37 10° N 12:34:18 29° NE 12:45:29 10° E daylight
07 Aug - 14:32:56 10° NW 14:44:16 87° NE 15:01:37 10° ESE daylight
07 Aug - 16:43:39 10° W 16:57:56 52° SSW 17:15:24 10° SE daylight
07 Aug - 18:57:55 10° WSW 19:14:11 42° S 19:29:17 10° ESE daylight
07 Aug - 21:12:49 10° SW 21:29:58 53° SSE 21:42:12 10° E visible
07 Aug - 23:27:05 10° WSW 23:42:34 80° NW 23:51:52 10° NE visible
08 Aug - 01:43:49 10° W 01:51:25 21° NW 01:56:57 10° N visible
08 Aug - 12:43:17 10° NNW 12:51:40 41° NE 13:04:42 10° ESE daylight
08 Aug - 14:50:45 10° WNW 15:02:18 77° SSW 15:19:47 10° ESE daylight
08 Aug - 17:02:19 10° W 17:16:43 47° SSW 17:33:45 10° ESE daylight
08 Aug - 19:16:41 10° WSW 19:33:12 43° S 19:48:02 10° ESE daylight
08 Aug - 21:31:03 10° SW 21:48:29 62° SSE 22:00:32 10° ENE visible
